Location: Unspecified
(51.6250°N, 0.8230°E)
Time: 05:51:51
(UTC+00:00)

Intercosmos 25 - Visible Passes

Search period start: 19 March 2019 00:00
Search period end: 29 March 2019 00:00
Orbit: 438 x 2879 km, 82.6° (Epoch: 18 March)

Date Brightness Start Highest point End Pass type
(mag) Time Alt. Az. Time Alt. Az. Time Alt. Az.
19 Mar 5.8 01:32:06 10° N 01:35:08 27° NNE 01:35:08 27° NNE visible
19 Mar 6.1 03:33:55 10° NW 03:34:40 12° NW 03:34:40 12° NW visible
20 Mar 5.8 01:26:54 10° N 01:29:38 25° NNE 01:29:38 25° NNE visible
20 Mar 6.2 03:28:49 10° NW 03:29:11 11° NW 03:29:11 11° NW visible
21 Mar 5.9 01:21:43 10° N 01:24:10 24° N 01:24:10 24° N visible
22 Mar 6.0 01:16:31 10° N 01:18:42 22° N 01:18:42 22° N visible
23 Mar 6.0 01:11:18 10° N 01:13:15 21° N 01:13:15 21° N visible
24 Mar 6.1 01:06:04 10° N 01:07:48 20° N 01:07:48 20° N visible
25 Mar 6.1 01:00:50 10° N 01:02:22 19° N 01:02:22 19° N visible
26 Mar 6.1 00:55:35 10° N 00:56:56 18° N 00:56:56 18° N visible
27 Mar 6.2 00:50:20 10° N 00:51:31 17° N 00:51:31 17° N visible
28 Mar 6.2 00:45:03 10° N 00:46:06 16° N 00:46:06 16° N visible
